DW1482 Weather Reports


Display with metric or nautical units.
time (UTC)temp
F
wind
direction
speed
MPH
gust
MPH
rain 1hr
in
rain 24hr
in
rain mn
in
humidity
%
barometer
mb
20260831053039 68 35 3.0 8.0 0.00 0.12 0.00 80 1008.4
20260831051504 69 5 3.0 12.0 0.00 0.12 0.00 80 1008.6
20260831050009 70 355 6.0 17.0 0.00 0.12 0.00 79 1008.8
20260831044513 72 333 3.0 12.0 0.00 0.12 0.12 82 1008.2
20260831043018 73 346 2.0 10.0 0.00 0.12 0.12 86 1007.5
20260831041504 73 337 1.0 8.0 0.00 0.12 0.12 86 1007.0
20260831040007 73 344 3.0 9.0 0.00 0.12 0.12 87 1006.9
20260831034511 74 313 0.0 4.0 0.00 0.12 0.12 86 1006.9
20260831033029 75 302 1.0 6.0 0.00 0.12 0.12 86 1006.8
20260831031502 75 15 2.0 8.0 0.00 0.12 0.12 86 1006.8
20260831030007 75 11 0.0 4.0 0.00 0.12 0.12 85 1006.6
20260831024514 76 23 2.0 5.0 0.00 0.12 0.12 84 1006.3
20260831023034 77 360 2.0 5.0 0.00 0.12 0.12 84 1006.0
20260831021537 77 13 1.0 5.0 0.00 0.12 0.12 83 1005.9
20260831020008 78 29 1.0 5.0 0.00 0.12 0.12 82 1005.7
20260831014515 79 24 1.0 5.0 0.00 0.12 0.12 81 1005.5
20260831013027 79 32 0.0 1.0 0.00 0.12 0.12 80 1005.1
20260831011530 79 32 0.0 2.0 0.00 0.12 0.12 79 1004.6
20260831010010 80 33 0.0 0.0 0.00 0.12 0.12 79 1003.9
20260831004520 81 33 2.0 4.0 0.00 0.12 0.12 77 1003.9
20260831003026 82 31 1.0 5.0 0.00 0.12 0.12 75 1004.1
20260831001531 82 30 0.0 5.0 0.00 0.12 0.12 74 1004.5
20260831000014 83 26 2.0 5.0 0.00 0.12 0.12 73 1004.6
20260830234532 84 81 1.0 4.0 0.00 0.12 0.12 69 1004.8
20260830233004 85 44 1.0 6.0 0.00 0.12 0.12 68 1004.6
20260830231516 85 94 2.0 4.0 0.00 0.12 0.12 66 1004.9
20260830230014 85 96 1.0 4.0 0.00 0.12 0.12 69 1004.8
20260830224524 85 104 1.0 6.0 0.00 0.12 0.12 67 1004.7
20260830223004 86 360 2.0 6.0 0.00 0.12 0.12 64 1004.7
20260830221512 86 67 2.0 5.0 0.00 0.12 0.12 67 1004.8
20260830220014 86 36 1.0 5.0 0.00 0.12 0.12 67 1005.2
20260830214529 85 339 1.0 4.0 0.00 0.12 0.12 69 1005.0
20260830213006 86 259 1.0 9.0 0.00 0.12 0.12 64 1005.0
20260830211512 85 237 4.0 9.0 0.00 0.12 0.12 64 1005.0
20260830210043 86 276 0.0 5.0 0.00 0.12 0.12 63 1004.9
20260830204525 86 322 1.0 5.0 0.00 0.12 0.12 63 1005.1
20260830203004 85 274 0.0 6.0 0.00 0.12 0.12 67 1005.1
20260830201510 86 304 1.0 3.0 0.00 0.12 0.12 65 1005.2
20260830200017 84 253 2.0 7.0 0.00 0.12 0.12 69 1005.4
20260830194526 85 273 3.0 8.0 0.00 0.12 0.12 68 1005.6
20260830193015 82 109 0.0 2.0 0.00 0.12 0.12 74 1005.7
20260830191518 83 106 0.0 6.0 0.00 0.12 0.12 73 1005.7
20260830190024 82 90 3.0 7.0 0.00 0.12 0.12 72 1005.8
20260830184528 81 86 3.0 7.0 0.00 0.12 0.12 76 1005.8
20260830183009 81 78 0.0 5.0 0.00 0.12 0.12 76 1005.9
20260830181516 80 84 0.0 8.0 0.00 0.12 0.12 78 1005.8
20260830180029 79 109 3.0 8.0 0.00 0.12 0.12 78 1006.0
20260830174530 79 84 1.0 8.0 0.00 0.12 0.12 78 1006.1
20260830173030 77 80 1.0 9.0 0.00 0.12 0.12 81 1006.4
20260830171519 76 58 2.0 9.0 0.00 0.12 0.12 83 1006.6
20260830170025 75 82 2.0 8.0 0.00 0.12 0.12 85 1006.6
20260830164534 74 111 1.0 8.0 0.00 0.12 0.12 85 1006.7
20260830163032 74 74 4.0 12.0 0.00 0.12 0.12 85 1006.6
20260830161528 74 109 1.0 11.0 0.00 0.12 0.12 86 1006.4
20260830160027 74 86 3.0 11.0 0.00 0.12 0.12 87 1006.4
20260830154536 73 72 6.0 9.0 0.00 0.12 0.12 86 1006.5
20260830153044 72 76 2.0 6.0 0.00 0.12 0.12 88 1006.4
20260830151523 72 76 1.0 6.0 0.00 0.12 0.12 88 1006.5
20260830150028 71 57 2.0 8.0 0.00 0.12 0.12 89 1006.5
20260830144532 71 95 3.0 9.0 0.00 0.12 0.12 89 1006.5
20260830143022 71 94 4.0 10.0 0.00 0.12 0.12 89 1006.5
20260830141505 71 135 1.0 10.0 0.00 0.12 0.12 90 1006.6
20260830140004 70 93 0.0 7.0 0.00 0.12 0.12 92 1006.8
20260830134509 69 78 2.0 6.0 0.00 0.12 0.12 92 1006.7
20260830133011 69 44 2.0 9.0 0.00 0.12 0.12 93 1006.8
20260830131502 69 49 1.0 9.0 0.00 0.12 0.12 93 1007.0
20260830130006 68 65 1.0 5.0 0.00 0.12 0.12 93 1007.0
20260830124513 68 134 1.0 4.0 0.01 0.12 0.12 94 1007.3
20260830123015 68 134 0.0 4.0 0.01 0.12 0.12 93 1007.1
20260830121503 67 134 0.0 4.0 0.01 0.12 0.12 93 1007.1
20260830120006 67 136 0.0 2.0 0.01 0.12 0.12 93 1006.8
20260830114526 68 136 0.0 0.0 0.00 0.11 0.11 93 1006.6
20260830113019 68 136 0.0 1.0 0.00 0.11 0.11 93 1006.2
20260830111503 68 136 0.0 2.0 0.00 0.11 0.11 93 1006.3
20260830110005 68 140 0.0 0.0 0.00 0.11 0.11 93 1006.0
20260830104518 68 140 0.0 0.0 0.00 0.11 0.11 93 1006.1
20260830103024 68 140 0.0 0.0 0.00 0.11 0.11 93 1006.0
20260830101524 69 141 0.0 0.0 0.00 0.11 0.11 93 1006.0
20260830100009 68 141 0.0 0.0 0.00 0.11 0.11 92 1005.9
20260830094516 69 141 0.0 0.0 0.00 0.11 0.11 92 1005.9
20260830093025 69 141 0.0 2.0 0.00 0.11 0.11 92 1006.0
20260830091534 69 143 0.0 2.0 0.00 0.11 0.11 92 1006.5
20260830090017 70 150 0.0 2.0 0.02 0.11 0.11 92 1006.9
20260830084518 70 150 0.0 3.0 0.03 0.11 0.11 92 1006.9
20260830083030 70 149 0.0 5.0 0.05 0.11 0.11 92 1006.6
20260830081529 71 85 0.0 0.0 0.10 0.11 0.11 92 1006.9
20260830080014 71 282 0.0 5.0 0.09 0.09 0.09 92 1009.0
20260830074519 71 29 0.0 5.0 0.08 0.08 0.08 91 1007.9
20260830073027 71 262 0.0 1.0 0.06 0.06 0.06 91 1007.6
20260830071531 71 55 0.0 2.0 0.01 0.01 0.01 90 1008.1
20260830070018 72 56 0.0 4.0 0.00 0.00 0.00 89 1007.0
20260830064525 72 83 0.0 5.0 0.00 0.00 0.00 88 1007.1
20260830063030 72 88 0.0 1.0 0.00 0.00 0.00 88 1007.0
20260830061529 72 74 0.0 3.0 0.00 0.00 0.00 88 1007.5
20260830060033 72 72 0.0 3.0 0.00 0.00 0.00 88 1007.9
20260830054524 72 121 0.0 2.0 0.00 0.00 0.00 88 1007.7